[[{"header":{"parameterUnit":"m.s-1","parameterCategory":1,"la1":30.2991,"la2":30.254,"lo1":-89.0895,"lo2":-89.0444,"dy":0.0017,"dx":0.0017,"nx":28,"ny":28,"refTime":"2025-07-11T09:00:00:Z","depth":0,"parameterNumber":2,"parameterNumberName":"U-component_of_WINDS"},"data":[0,0,0,0,0,0,0,0,0,0,0,0,0,0,0,0,0,0,0,0,0,0,0,0,0,0,0,0,0,0,0,0,0,0,0,0,0,0,0,0,0,0,0,0,0,0,0,0,0,0,0,0,0,0,0,0,0,0,1.2947,1.2947,0,1.2965,1.2965,1.2965,1.2996,1.2996,1.2997,1.2997,1.3016,1.3016,1.3016,0,0,0,0,0,0,0,0,0,0,0,0,0,1.2938,1.2938,1.2947,1.2947,1.2947,1.2965,1.2965,1.2965,1.2996,1.2996,1.2997,1.2998,1.3016,1.3016,1.3016,0,0,0,0,0,0,0,0,0,0,0,0,0,1.2947,1.2938,1.2947,1.2964,1.2966,1.2965,1.2965,1.2965,1.2996,1.2996,1.2997,1.2998,1.3016,1.3016,1.3016,1.2998,0,0,1.3016,1.3016,0,0,0,0,0,0,0,0,1.2947,1.2948,1.2962,1.2963,1.2965,1.2979,1.2969,1.2976,1.2995,1.2984,1.2997,1.2998,1.3003,1.3004,1.3005,1.2999,1.3,1.3016,1.3016,1.3015,1.3015,0,0,0,0,0,0,0,1.2946,1.2947,1.2954,1.2962,1.2964,1.2971,1.2974,1.297,1.2989,1.2985,1.2988,1.2989,1.3004,1.3005,1.3006,1.3,1.3016,1.3015,1.3015,1.3015,1.2982,1.2981,0,0,0,0,0,0,1.2943,1.2946,1.2953,1.2954,1.2958,1.2971,1.2973,1.2974,1.2989,1.2992,1.2989,1.2991,1.3005,1.3006,1.3007,1.2989,1.3015,1.3015,1.3015,1.2982,1.2981,1.2981,0,0,0,0,0,0,1.2942,1.2943,1.2953,1.2951,1.2953,1.297,1.297,1.2974,1.2975,1.2991,1.2995,1.2987,1.3006,1.3007,1.3001,1.299,1.3015,1.3015,1.2984,1.2982,1.2981,1.2951,0,0,0,0,0,0,1.2942,1.2943,1.2937,1.2951,1.2953,1.2946,1.2969,1.2973,1.2975,1.2978,1.299,1.2993,1.3007,1.3,1.3,1.299,1.3015,1.2985,1.2983,1.2981,1.2953,1.2949,1.2945,0,0,0,0,0,1.2942,1.2927,1.2936,1.2937,1.2945,1.2945,1.2946,1.2962,1.2974,1.2968,1.2978,1.2993,1.299,1.2999,1.3,1.2989,1.2985,1.2983,1.2982,1.2955,1.295,1.2945,0,0,0,0,0,0,1.2911,1.2929,1.2939,1.2929,1.2935,1.295,1.2943,1.2956,1.2959,1.2962,1.2981,1.2983,1.2975,1.2981,1.2991,1.2973,1.299,1.2988,1.297,1.2965,1.2961,1.296,1.3015,0,0,0,0,0,1.2903,1.2902,1.2918,1.2907,1.291,1.2926,1.2926,1.2938,1.2945,1.2948,1.2958,1.2964,1.2965,1.2965,1.2967,1.2954,1.2957,1.2946,1.2942,1.2939,1.2938,1.2932,1.2928,1.2974,1.2974,1.2974,0,0,1.2887,1.2897,1.2895,1.2901,1.2908,1.2906,1.2928,1.2925,1.2924,1.2947,1.2943,1.295,1.2958,1.2949,1.2945,1.2954,1.2925,1.2937,1.2934,1.2934,1.293,1.2925,1.2921,1.2973,1.2973,1.2973,0,0,1.2857,1.2864,1.2856,1.2862,1.2871,1.2882,1.288,1.2893,1.2899,1.2894,1.2912,1.291,1.2911,1.2917,1.292,1.2891,1.2905,1.2891,1.2871,1.2865,1.2861,1.2858,1.2849,1.2846,1.2889,1.2889,1.2889,0,1.2836,1.2834,1.285,1.2847,1.2849,1.287,1.2863,1.2867,1.2876,1.2878,1.2887,1.2889,1.2896,1.2889,1.2882,1.2883,1.2882,1.289,1.2861,1.2858,1.2855,1.2847,1.2843,1.2887,1.2887,1.2887,1.2888,0,1.2808,1.2806,1.2799,1.2808,1.2809,1.2803,1.2819,1.2818,1.2829,1.2839,1.2834,1.2843,1.2847,1.2846,1.2856,1.284,1.2845,1.2857,1.2875,1.2849,1.2841,1.2838,1.2885,1.2885,1.2886,1.2886,0,0,1.276,1.2778,1.2775,1.2779,1.2791,1.279,1.2785,1.2789,1.2789,1.2794,1.2791,1.2791,1.2802,1.2805,1.2817,1.2811,1.279,1.2825,1.2825,1.2819,1.2773,1.2765,1.276,1.2798,1.2798,1.2797,1.2773,0,1.2734,1.2727,1.2741,1.2731,1.273,1.275,1.2745,1.2752,1.2761,1.2761,1.277,1.2771,1.2785,1.2787,1.2783,1.2793,1.2781,1.2795,1.2796,1.2796,1.2795,1.2756,1.2748,1.2724,1.277,1.2769,1.2769,0,1.2702,1.2706,1.2696,1.2708,1.2708,1.2704,1.2709,1.2709,1.2717,1.2723,1.2727,1.274,1.2736,1.2752,1.2747,1.2757,1.2758,1.2763,1.2762,1.2764,1.2782,1.2758,1.2717,1.2714,1.2764,1.2764,1.2765,0,1.267,1.2672,1.2667,1.267,1.2684,1.2681,1.2686,1.2695,1.2696,1.27,1.2702,1.2705,1.2707,1.271,1.2724,1.2734,1.2718,1.2734,1.2724,1.2723,1.2721,1.2721,1.268,1.2719,1.2719,1.2719,1.2719,0,1.264,1.2633,1.2653,1.2649,1.2642,1.2659,1.2651,1.2659,1.2666,1.2665,1.2681,1.2679,1.2697,1.2697,1.2708,1.2703,1.2704,1.2709,1.2712,1.2709,1.2708,1.2711,1.2713,1.2718,1.2718,1.2719,1.2719,0,1.2603,1.2616,1.2612,1.2625,1.2628,1.2622,1.2634,1.2631,1.2641,1.2639,1.2639,1.2654,1.2655,1.2669,1.2673,1.268,1.2671,1.2677,1.2669,1.2671,1.266,1.2661,1.262,1.2616,1.2657,1.2656,1.2656,0,1.2584,1.2579,1.2592,1.2592,1.2597,1.2597,1.2599,1.2614,1.2615,1.2624,1.262,1.2623,1.2626,1.2626,1.2638,1.2641,1.2647,1.2633,1.2648,1.2645,1.2649,1.2649,1.2649,1.263,1.2629,1.2629,1.2629,0,1.2548,1.2555,1.2557,1.2561,1.2562,1.2566,1.2571,1.257,1.2587,1.2588,1.2589,1.2591,1.2595,1.2598,1.2603,1.2609,1.2622,1.2624,1.2622,1.2618,1.2614,1.2618,1.2661,1.2625,1.2625,1.2625,1.2626,1.2626,1.2521,1.2518,1.2526,1.2528,1.2533,1.2537,1.2536,1.2545,1.2546,1.2551,1.256,1.256,1.2568,1.2576,1.2581,1.2581,1.2589,1.2586,1.2585,1.2584,1.2583,1.2613,1.2582,1.2582,1.2582,1.2582,1.2582,0,1.2487,1.2493,1.2495,1.2501,1.2502,1.2514,1.252,1.252,1.252,1.2526,1.2529,1.253,1.2533,1.2544,1.2547,1.2546,1.2552,1.2546,1.2547,1.2549,1.2575,1.2577,1.2541,1.2541,1.2541,1.2541,1.2541,1.2541,1.247,1.2466,1.2473,1.2471,1.2478,1.2478,1.2481,1.2485,1.249,1.2491,1.2493,1.25,1.2508,1.2513,1.2515,1.2519,1.252,1.2512,1.2518,1.2543,1.2547,1.255,1.2552,1.2512,1.2512,1.2492,1.2491,1.2491]},{"header":{"parameterUnit":"m.s-1","parameterCategory":1,"la1":30.2991,"la2":30.254,"lo1":-89.0895,"lo2":-89.0444,"dy":0.0017,"dx":0.0017,"nx":28,"ny":28,"refTime":"2025-07-11T09:00:00:Z","depth":0,"parameterNumber":3,"parameterNumberName":"V-component_of_WINDS"},"data":[0,0,0,0,0,0,0,0,0,0,0,0,0,0,0,0,0,0,0,0,0,0,0,0,0,0,0,0,0,0,0,0,0,0,0,0,0,0,0,0,0,0,0,0,0,0,0,0,0,0,0,0,0,0,0,0,0,0,1.4438,1.4438,0,1.438,1.4379,1.4379,1.436,1.436,1.4361,1.4361,1.4297,1.4295,1.4293,0,0,0,0,0,0,0,0,0,0,0,0,0,1.453,1.4528,1.4439,1.4438,1.4437,1.438,1.4379,1.4378,1.436,1.436,1.4361,1.4361,1.4298,1.4296,1.4293,0,0,0,0,0,0,0,0,0,0,0,0,0,1.4482,1.4528,1.4439,1.4421,1.4419,1.438,1.4379,1.4378,1.436,1.436,1.4361,1.4361,1.4299,1.4296,1.4293,1.4266,0,0,1.4284,1.4283,0,0,0,0,0,0,0,0,1.4485,1.4479,1.4424,1.4422,1.442,1.4378,1.4388,1.434,1.436,1.4382,1.4361,1.4361,1.4323,1.4318,1.4306,1.4263,1.426,1.4284,1.4282,1.4281,1.428,0,0,0,0,0,0,0,1.4488,1.4481,1.4415,1.4424,1.4421,1.4415,1.4408,1.4379,1.4351,1.438,1.4379,1.4372,1.4322,1.4309,1.4305,1.4259,1.4284,1.4281,1.4279,1.4278,1.4188,1.4188,0,0,0,0,0,0,1.4495,1.4484,1.4417,1.4413,1.4454,1.4413,1.4406,1.4391,1.4351,1.4346,1.4372,1.4372,1.4314,1.4308,1.4302,1.4267,1.4281,1.4278,1.4276,1.4189,1.4188,1.4187,0,0,0,0,0,0,1.4497,1.4489,1.4419,1.4448,1.4439,1.4411,1.4394,1.4389,1.4377,1.4345,1.434,1.4364,1.4314,1.4307,1.4275,1.4264,1.4276,1.4274,1.4189,1.4189,1.4188,1.4196,0,0,0,0,0,0,1.45,1.449,1.4481,1.4448,1.4438,1.4394,1.4393,1.4388,1.4372,1.4371,1.4336,1.4331,1.4314,1.4279,1.4272,1.426,1.4271,1.419,1.4189,1.4188,1.4197,1.4196,1.4195,0,0,0,0,0,1.4503,1.4486,1.4481,1.4473,1.4426,1.4394,1.4388,1.4369,1.4371,1.4361,1.434,1.4332,1.4267,1.4276,1.4268,1.4255,1.4191,1.4189,1.4188,1.4197,1.4196,1.4195,0,0,0,0,0,0,1.4517,1.4481,1.4475,1.4447,1.4424,1.4391,1.4377,1.4369,1.4344,1.4344,1.4321,1.4313,1.4283,1.4266,1.4277,1.4226,1.4228,1.4225,1.4238,1.4237,1.4236,1.424,1.4269,0,0,0,0,0,1.4517,1.4496,1.4465,1.4442,1.4431,1.4406,1.4392,1.438,1.4354,1.4344,1.4321,1.4296,1.4269,1.4252,1.4226,1.4194,1.4185,1.4181,1.418,1.418,1.4177,1.4156,1.4153,1.4183,1.4183,1.4183,0,0,1.4516,1.4494,1.4482,1.4445,1.4425,1.4402,1.4398,1.4374,1.4356,1.434,1.4308,1.4291,1.426,1.4228,1.4212,1.4213,1.4167,1.4178,1.4178,1.4175,1.4154,1.4152,1.4149,1.4182,1.4182,1.4182,0,0,1.4503,1.4485,1.4463,1.4444,1.4415,1.4398,1.4393,1.4361,1.4348,1.4317,1.4304,1.4281,1.4236,1.4214,1.4197,1.4174,1.4164,1.4166,1.416,1.414,1.4138,1.4136,1.4125,1.4122,1.4163,1.4163,1.4163,0,1.4506,1.4471,1.4453,1.4429,1.4412,1.4397,1.4374,1.4355,1.4319,1.4306,1.4308,1.425,1.4229,1.419,1.4184,1.4171,1.4163,1.4169,1.414,1.4138,1.4135,1.4125,1.4121,1.4163,1.4163,1.4163,1.4163,0,1.4475,1.4451,1.4436,1.4402,1.4383,1.436,1.4336,1.4319,1.4308,1.4291,1.4257,1.4231,1.4198,1.4188,1.4177,1.4147,1.4148,1.4145,1.4147,1.4133,1.4123,1.4119,1.4164,1.4164,1.4164,1.4163,0,0,1.4469,1.4424,1.4419,1.4402,1.4368,1.4348,1.4323,1.4291,1.4276,1.4251,1.4228,1.4189,1.4186,1.4167,1.4153,1.4136,1.4115,1.4134,1.4133,1.413,1.4078,1.4079,1.4075,1.4109,1.4109,1.4108,1.408,0,1.4451,1.4406,1.4388,1.4351,1.4327,1.4312,1.4289,1.4265,1.4247,1.4223,1.4203,1.4175,1.4174,1.4162,1.4144,1.4122,1.4104,1.4124,1.4085,1.4084,1.4092,1.407,1.4072,1.4047,1.4076,1.4075,1.4074,0,1.4423,1.4398,1.4359,1.4325,1.4314,1.4295,1.4263,1.4241,1.4212,1.42,1.4178,1.4164,1.4135,1.4139,1.4096,1.411,1.4093,1.4079,1.4078,1.4072,1.4078,1.4063,1.4038,1.4034,1.4068,1.4069,1.4069,0,1.4421,1.4377,1.4347,1.4334,1.4294,1.428,1.4263,1.4234,1.4216,1.4188,1.4175,1.4144,1.4127,1.4102,1.4079,1.4085,1.4038,1.4041,1.4025,1.4026,1.4016,1.4016,1.3987,1.4007,1.4007,1.4007,1.4007,0,1.4402,1.4378,1.4346,1.4328,1.4299,1.4278,1.425,1.4231,1.4205,1.4182,1.4166,1.4144,1.4116,1.4089,1.4072,1.4038,1.403,1.4018,1.4013,1.4019,1.402,1.4007,1.4007,1.4006,1.4006,1.4007,1.4007,0,1.4395,1.4373,1.4339,1.4304,1.4294,1.4275,1.4244,1.4224,1.4206,1.4175,1.4167,1.4137,1.4104,1.408,1.4038,1.4025,1.3989,1.3985,1.3999,1.3996,1.3981,1.3982,1.3941,1.3933,1.396,1.396,1.396,0,1.4383,1.4365,1.4327,1.4311,1.4293,1.4267,1.4248,1.4225,1.4205,1.4169,1.4153,1.412,1.4092,1.404,1.4013,1.398,1.3974,1.3962,1.3969,1.3974,1.3971,1.3972,1.3969,1.396,1.396,1.396,1.396,0,1.4365,1.4354,1.4328,1.4297,1.4275,1.4249,1.4223,1.421,1.4182,1.416,1.4127,1.4106,1.4062,1.4028,1.3992,1.3972,1.396,1.3958,1.3952,1.3957,1.3965,1.3958,1.3995,1.3959,1.3959,1.3959,1.3959,1.3959,1.4354,1.4336,1.4306,1.4277,1.4255,1.423,1.4209,1.4187,1.416,1.4123,1.4111,1.4076,1.4044,1.3994,1.3974,1.3945,1.3944,1.3937,1.3934,1.3932,1.3932,1.3971,1.3938,1.3938,1.3938,1.3938,1.3938,0,1.4333,1.4313,1.4286,1.425,1.4226,1.4218,1.4188,1.4168,1.4138,1.411,1.4082,1.4043,1.4009,1.3979,1.3944,1.3926,1.3919,1.3917,1.3917,1.3912,1.3935,1.3943,1.3923,1.3923,1.3923,1.3923,1.3923,1.3923,1.432,1.4288,1.4273,1.4229,1.4208,1.4174,1.4158,1.4134,1.4111,1.4068,1.404,1.4021,1.3991,1.3953,1.392,1.3912,1.3899,1.3898,1.3888,1.3909,1.3911,1.3913,1.392,1.3895,1.3895,1.3867,1.3867,1.3867]}]]